CW9386 Weather Reports


time (UTC)temp
F
wind
direction
speed
knots
gust
knots
rain 1hr
in
rain 24hr
in
rain mn
in
humidity
%
barometer
mb
20260509051712 68 82 2.6 4.3 0.00 0.00 0.00 19 1013.7
20260509050702 69 76 2.6 3.5 0.00 0.00 0.00 19 1013.8
20260509045659 70 88 3.5 3.5 0.00 0.00 0.00 18 1013.8
20260509044713 69 94 0.9 2.6 0.00 0.00 0.00 18 1013.8
20260509043709 69 105 1.7 3.5 0.00 0.00 0.00 19 1013.8
20260509042703 68 105 0.0 2.6 0.00 0.00 0.00 20 1013.7
20260509041702 68 90 1.7 3.5 0.00 0.00 0.00 20 1013.5
20260509040703 68 146 0.9 4.3 0.00 0.00 0.00 21 1013.5
20260509035701 69 94 1.7 2.6 0.00 0.00 0.00 21 1013.4
20260509034656 69 115 0.9 2.6 0.00 0.00 0.00 21 1013.1
20260509033657 70 71 1.7 4.3 0.00 0.00 0.00 20 1012.9
20260509032708 71 76 2.6 4.3 0.00 0.00 0.00 19 1012.8
20260509031704 72 72 2.6 4.3 0.00 0.00 0.00 18 1012.7
20260509030701 74 63 1.7 3.5 0.00 0.00 0.00 16 1012.5
20260509025657 77 88 0.9 1.7 0.00 0.00 0.00 14 1012.4
20260509024709 79 35 0.0 0.9 0.00 0.00 0.00 13 1012.2
20260509023707 80 34 0.0 0.9 0.00 0.00 0.00 12 1012.1
20260509022701 81 44 0.0 0.0 0.00 0.00 0.00 12 1011.9
20260509021711 82 46 0.0 1.7 0.00 0.00 0.00 11 1011.8
20260509020706 83 30 0.0 2.6 0.00 0.00 0.00 10 1011.8
20260509015702 84 360 1.7 3.5 0.00 0.00 0.00 9 1011.8
20260509013657 85 13 0.9 4.3 0.00 0.00 0.00 8 1011.6
20260509012711 86 355 2.6 4.3 0.00 0.00 0.00 8 1011.6
20260509011704 86 23 4.3 8.7 0.00 0.00 0.00 7 1011.5
20260509010702 87 9 5.2 10.4 0.00 0.00 0.00 7 1011.6
20260509005712 87 5 7.0 10.4 0.00 0.00 0.00 7 1011.6
20260509004704 88 355 7.0 8.7 0.00 0.00 0.00 7 1011.6
20260509003656 88 329 3.5 7.0 0.00 0.00 0.00 7 1011.6
20260509002652 88 12 1.7 10.4 0.00 0.00 0.00 8 1011.7
20260509000657 88 302 0.9 12.2 0.00 0.00 0.00 8 1011.7
20260508235653 87 325 0.9 13.0 0.00 0.00 0.00 8 1011.0
20260508233708 89 115 4.3 7.8 0.00 0.00 0.00 8 1011.0
20260508232702 89 347 6.1 9.6 0.00 0.00 0.00 8 1011.0
20260508231658 88 82 3.5 12.2 0.00 0.00 0.00 8 1011.0
20260508225707 88 11 5.2 9.6 0.00 0.00 0.00 8 1011.2
20260508224704 88 360 1.7 11.3 0.00 0.00 0.00 8 1011.2
20260508223701 88 342 10.4 14.8 0.00 0.00 0.00 8 1011.2
20260508222650 88 320 10.4 15.6 0.00 0.00 0.00 8 1011.3
20260508220702 88 336 1.7 13.0 0.00 0.00 0.00 8 1011.4
20260508215656 88 301 4.3 13.0 0.00 0.00 0.00 8 1011.4
20260508214650 88 281 1.7 6.1 0.00 0.00 0.00 8 1011.6
20260508213708 88 206 2.6 10.4 0.00 0.00 0.00 9 1011.7
20260508212705 88 13 3.5 8.7 0.00 0.00 0.00 9 1011.8
20260508211655 88 15 3.5 12.2 0.00 0.00 0.00 9 1011.9
20260508210648 87 346 3.5 13.0 0.00 0.00 0.00 9 1012.1
20260508205703 87 34 0.9 12.2 0.00 0.00 0.00 9 1012.3
20260508204656 87 236 3.5 7.0 0.00 0.00 0.00 9 1012.4
20260508203649 87 291 5.2 13.0 0.00 0.00 0.00 9 1012.5
20260508202648 87 46 7.8 12.2 0.00 0.00 0.00 8 1012.6
20260508201658 87 318 0.0 11.3 0.00 0.00 0.00 8 1012.8
20260508200657 87 215 5.2 13.0 0.00 0.00 0.00 7 1012.8
20260508194704 86 343 2.6 11.3 0.00 0.00 0.00 8 1013.2
20260508193658 86 11 4.3 10.4 0.00 0.00 0.00 8 1013.3
20260508192647 86 348 8.7 13.0 0.00 0.00 0.00 8 1013.2
20260508191703 86 15 2.6 11.3 0.00 0.00 0.00 9 1013.4
20260508190654 86 28 5.2 8.7 0.00 0.00 0.00 9 1013.5
20260508185651 86 360 0.9 2.6 0.00 0.00 0.00 12 1013.5
20260508184657 85 306 0.9 7.8 0.00 0.00 0.00 12 1013.6
20260508182648 84 67 2.6 6.1 0.00 0.00 0.00 14 1013.8
20260508181646 83 135 0.9 8.7 0.00 0.00 0.00 14 1014.1
20260508180701 82 105 0.0 7.0 0.00 0.00 0.00 14 1014.2
20260508175647 81 360 0.9 7.8 0.00 0.00 0.00 15 1014.4
20260508174700 80 344 0.0 7.0 0.00 0.00 0.00 16 1014.5
20260508173656 80 321 6.1 9.6 0.00 0.00 0.00 16 1014.6
20260508172650 79 256 0.9 7.8 0.00 0.00 0.00 16 1014.7
20260508171648 78 304 4.3 7.8 0.00 0.00 0.00 16 1014.8
20260508170645 78 293 1.7 7.0 0.00 0.00 0.00 17 1015.0
20260508165654 77 360 2.6 7.0 0.00 0.00 0.00 17 1015.2
20260508164647 77 350 1.7 7.8 0.00 0.00 0.00 18 1015.3
20260508163642 76 347 5.2 7.0 0.00 0.00 0.00 18 1015.3
20260508161656 74 338 2.6 6.1 0.00 0.00 0.00 19 1015.4
20260508160653 73 340 1.7 4.3 0.00 0.00 0.00 20 1015.5
20260508155653 72 360 2.6 4.3 0.00 0.00 0.00 21 1015.5
20260508154703 70 338 3.5 6.1 0.00 0.00 0.00 23 1015.4
20260508153656 70 355 3.5 6.1 0.00 0.00 0.00 24 1015.5
20260508145642 66 342 4.3 7.0 0.00 0.00 0.00 27 1015.6
20260508144659 66 11 3.5 6.1 0.00 0.00 0.00 28 1015.6
20260508143653 65 5 3.5 7.0 0.00 0.00 0.00 28 1015.6
20260508141641 64 349 4.3 7.8 0.00 0.00 0.00 30 1015.6
20260508135647 63 349 4.3 6.1 0.00 0.00 0.00 32 1015.7
20260508133645 60 360 0.9 2.6 0.00 0.00 0.00 37 1015.4
20260508132657 58 21 0.0 0.9 0.00 0.00 0.00 39 1015.2
20260508131648 57 74 0.0 2.6 0.00 0.00 0.00 40 1015.3
20260508130650 56 46 0.9 3.5 0.00 0.00 0.00 39 1015.1
20260508125642 56 9 1.7 4.3 0.00 0.00 0.00 38 1015.2
20260508124658 57 5 2.6 5.2 0.00 0.00 0.00 38 1015.0
20260508123649 58 19 0.9 2.6 0.00 0.00 0.00 37 1014.7
20260508122643 58 16 0.0 1.7 0.00 0.00 0.00 37 1013.8
20260508121658 58 17 0.9 2.6 0.00 0.00 0.00 37 1013.7
20260508120654 59 18 0.0 0.9 0.00 0.00 0.00 36 1013.8
20260508115648 59 17 0.0 0.9 0.00 0.00 0.00 35 1013.8
20260508114639 59 18 0.9 2.6 0.00 0.00 0.00 35 1013.7
20260508113652 60 20 0.9 1.7 0.00 0.00 0.00 35 1013.7
20260508112649 60 18 0.0 2.6 0.00 0.00 0.00 35 1013.7
20260508111639 61 19 0.0 2.6 0.00 0.00 0.00 34 1013.7
20260508110654 61 20 1.7 2.6 0.00 0.00 0.00 34 1013.8
20260508105650 61 18 0.9 3.5 0.00 0.00 0.00 34 1013.7
20260508103641 61 360 2.6 6.1 0.00 0.00 0.00 36 1013.6
20260508102655 61 17 1.7 8.7 0.00 0.00 0.00 37 1013.6
20260508101646 61 16 4.3 7.8 0.00 0.00 0.00 38 1013.6
20260508100647 60 360 5.2 7.8 0.00 0.00 0.00 38 1013.6
20260508094651 58 15 3.5 6.1 0.00 0.00 0.00 38 1013.9
20260508093642 58 16 1.7 4.3 0.00 0.00 0.00 37 1014.0
20260508092642 57 16 0.9 2.6 0.00 0.00 0.00 37 1014.1
20260508091636 57 18 0.9 2.6 0.00 0.00 0.00 37 1014.3
20260508090649 56 17 0.9 3.5 0.00 0.00 0.00 36 1014.3
20260508085640 56 16 0.9 3.5 0.00 0.00 0.00 35 1014.1
20260508084651 56 15 0.9 2.6 0.00 0.00 0.00 35 1014.1
20260508083649 56 15 0.9 2.6 0.00 0.00 0.00 35 1014.2
20260508081638 56 13 0.0 1.7 0.00 0.00 0.00 35 1014.3
20260508080646 56 14 1.7 2.6 0.00 0.00 0.00 36 1014.3
20260508074646 57 15 0.9 2.6 0.00 0.00 0.00 34 1014.5
20260508073645 58 13 0.9 2.6 0.00 0.00 0.00 34 1014.5
20260508072653 58 15 0.0 3.5 0.00 0.00 0.00 33 1014.6
20260508071653 58 15 0.0 4.3 0.00 0.00 0.00 33 1014.6
20260508070648 59 17 0.9 3.5 0.00 0.00 0.00 33 1014.6
20260508065644 59 14 2.6 4.3 0.00 0.00 0.00 33 1014.7
20260508063644 59 13 0.9 2.6 0.00 0.00 0.00 32 1014.6
20260508062651 59 14 1.7 3.5 0.00 0.00 0.00 32 1014.6
20260508061643 59 15 1.7 3.5 0.00 0.00 0.00 32 1014.7
20260508060645 59 13 2.6 2.6 0.00 0.00 0.00 31 1014.6
20260508055643 59 13 0.9 2.6 0.00 0.00 0.00 31 1014.5
20260508054644 60 13 0.9 2.6 0.00 0.00 0.00 31 1014.4
20260508053634 60 12 1.7 2.6 0.00 0.00 0.00 31 1014.5
20260508052637 60 11 0.9 3.5 0.00 0.00 0.00 31 1014.5